Time,TemperatureF,DewpointF,PressureIn,WindDirection,WindDirectionDegrees,WindSpeedMPH,WindSpeedGustMPH,Humidity,HourlyPrecipIn,Conditions,Clouds,dailyrainin,SoftwareType,DateUTC
2013-09-16 00:03:00,57.7,46.1,-100.00,North,354,0.0,2.5,65,0.00,,,0.00,WSDL version 420,2013-09-16 04:03:00,
2013-09-16 00:07:00,57.6,46.0,29.26,NE,35,0.0,1.3,66,0.00,,,0.00,WSDL version 420,2013-09-16 04:07:00,
2013-09-16 00:09:00,57.5,46.1,29.26,North,6,0.2,0.0,66,-99.99,,,-99.99,WSDL version 420,2013-09-16 04:09:00,
2013-09-16 00:14:00,57.1,46.1,29.26,North,11,0.0,2.2,67,0.00,,,0.00,WSDL version 420,2013-09-16 04:14:00,
2013-09-16 00:20:00,56.8,46.1,-100.00,NNW,345,0.0,1.3,68,0.00,,,0.00,WSDL version 420,2013-09-16 04:20:00,
2013-09-16 00:24:00,56.5,46.1,-100.00,NNW,347,0.4,1.3,68,0.00,,,0.00,WSDL version 420,2013-09-16 04:24:00,
2013-09-16 00:26:00,56.4,45.9,-100.00,NNE,23,0.4,1.3,67,0.00,,,0.00,WSDL version 420,2013-09-16 04:26:00,
2013-09-16 00:30:00,56.3,45.8,29.29,NE,39,0.0,1.3,68,0.00,,,0.00,WSDL version 420,2013-09-16 04:30:00,
2013-09-16 00:36:00,55.9,45.5,29.29,East,79,0.0,0.9,68,-99.99,,,-99.99,WSDL version 420,2013-09-16 04:36:00,
2013-09-16 00:42:00,55.8,45.8,29.32,South,188,0.0,0.0,69,0.00,,,0.00,WSDL version 420,2013-09-16 04:42:00,
2013-09-16 00:47:00,55.4,45.8,29.32,ENE,63,0.0,0.0,70,0.00,,,0.00,WSDL version 420,2013-09-16 04:47:00,
2013-09-16 00:53:00,55.2,46.5,29.29,SE,124,0.0,0.0,73,0.00,,,0.00,WSDL version 420,2013-09-16 04:53:00,
2013-09-16 00:59:00,54.9,46.2,29.29,NE,39,0.0,0.0,73,0.00,,,0.00,WSDL version 420,2013-09-16 04:59:00,
2013-09-16 01:05:00,54.6,46.4,29.29,NW,305,0.0,0.0,74,0.00,,,0.00,WSDL version 420,2013-09-16 05:05:00,
2013-09-16 01:11:00,54.3,46.6,29.29,South,170,0.4,2.5,77,0.00,,,0.00,WSDL version 420,2013-09-16 05:11:00,
2013-09-16 01:17:00,54.1,46.4,29.29,SSW,203,0.0,2.5,75,0.00,,,0.00,WSDL version 420,2013-09-16 05:17:00,
2013-09-16 01:23:00,54.0,46.4,29.29,SSW,203,0.0,0.0,76,0.00,,,0.00,WSDL version 420,2013-09-16 05:23:00,
2013-09-16 01:29:00,54.0,46.8,29.29,South,180,0.0,0.0,77,0.00,,,0.00,WSDL version 420,2013-09-16 05:29:00,
2013-09-16 01:35:00,53.8,47.0,29.29,South,170,0.0,0.0,78,0.00,,,0.00,WSDL version 420,2013-09-16 05:35:00,
2013-09-16 01:41:00,53.8,47.1,29.26,SSW,203,0.0,0.0,78,0.00,,,0.00,WSDL version 420,2013-09-16 05:41:00,
2013-09-16 01:47:00,53.6,47.3,29.26,SSW,203,0.0,0.0,79,0.00,,,0.00,WSDL version 420,2013-09-16 05:47:00,
2013-09-16 01:53:00,53.5,47.5,29.26,SSW,203,0.0,0.0,80,0.00,,,0.00,WSDL version 420,2013-09-16 05:53:00,
2013-09-16 01:59:00,53.4,47.2,29.26,SSW,203,0.0,0.0,79,0.00,,,0.00,WSDL version 420,2013-09-16 05:59:00,
2013-09-16 02:05:00,53.2,47.1,29.26,SSW,203,0.0,0.0,80,0.00,,,0.00,WSDL version 420,2013-09-16 06:05:00,
2013-09-16 02:11:00,53.2,47.2,29.26,SSW,203,0.0,0.0,80,0.00,,,0.00,WSDL version 420,2013-09-16 06:11:00,
2013-09-16 02:20:00,53.2,48.0,-100.00,SSW,203,0.0,0.0,82,0.00,,,0.00,WSDL version 420,2013-09-16 06:20:00,
2013-09-16 02:28:00,53.1,47.8,-100.00,SSW,203,0.0,0.0,82,0.00,,,0.00,WSDL version 420,2013-09-16 06:28:00,
2013-09-16 02:38:00,53.2,48.3,29.26,SSW,203,0.0,0.0,83,-99.99,,,-99.99,WSDL version 420,2013-09-16 06:38:00,
2013-09-16 02:44:00,53.1,48.1,-100.00,SSW,203,0.0,0.0,83,0.00,,,0.00,WSDL version 420,2013-09-16 06:44:00,
2013-09-16 02:49:00,53.1,48.1,-100.00,SSW,203,0.0,0.0,83,0.00,,,0.00,WSDL version 420,2013-09-16 06:49:00,
2013-09-16 02:55:00,53.1,48.3,29.26,SSW,203,0.0,0.0,83,0.00,,,0.00,WSDL version 420,2013-09-16 06:55:00,
2013-09-16 03:00:00,53.1,48.5,29.26,SSW,203,0.0,0.0,84,-99.99,,,-99.99,WSDL version 420,2013-09-16 07:00:00,
2013-09-16 03:07:00,53.1,48.5,29.26,SSW,203,0.0,0.0,84,0.00,,,0.00,WSDL version 420,2013-09-16 07:07:00,
2013-09-16 03:15:00,53.1,48.5,29.26,SSW,203,0.0,0.0,84,0.00,,,0.00,WSDL version 420,2013-09-16 07:15:00,
2013-09-16 03:22:00,53.1,48.5,29.26,SSW,203,0.0,0.0,84,0.00,,,0.00,WSDL version 420,2013-09-16 07:22:00,
2013-09-16 03:30:00,53.1,48.5,29.26,SSW,203,0.0,0.0,84,0.00,,,0.00,WSDL version 420,2013-09-16 07:30:00,
2013-09-16 03:36:00,53.1,48.5,-100.00,SSW,203,0.0,0.0,84,0.00,,,0.00,WSDL version 420,2013-09-16 07:36:00,
2013-09-16 03:41:00,52.9,48.3,-100.00,SSW,203,0.0,0.0,84,0.00,,,0.00,WSDL version 420,2013-09-16 07:41:00,
2013-09-16 03:47:00,52.9,48.3,29.26,SSW,203,0.0,0.0,84,0.00,,,0.00,WSDL version 420,2013-09-16 07:47:00,
2013-09-16 03:52:00,52.9,48.7,29.26,SSW,203,0.0,0.0,86,0.00,,,0.00,WSDL version 420,2013-09-16 07:52:00,
2013-09-16 03:58:00,53.0,48.8,29.26,SSW,203,0.0,0.0,86,0.00,,,0.00,WSDL version 420,2013-09-16 07:58:00,
2013-09-16 04:05:00,52.9,48.7,-100.00,SSW,203,0.0,0.0,86,0.00,,,0.00,WSDL version 420,2013-09-16 08:05:00,
2013-09-16 04:10:00,52.9,48.7,29.26,SSW,203,0.0,0.0,86,0.00,,,0.00,WSDL version 420,2013-09-16 08:10:00,
2013-09-16 04:19:00,52.9,48.7,-100.00,SSW,203,0.0,0.0,86,0.00,,,0.00,WSDL version 420,2013-09-16 08:19:00,
2013-09-16 04:25:00,52.9,48.7,-100.00,SSW,203,0.0,0.0,86,0.00,,,0.00,WSDL version 420,2013-09-16 08:25:00,
2013-09-16 04:31:00,52.9,48.7,29.26,SSW,203,0.0,0.0,86,0.00,,,0.00,WSDL version 420,2013-09-16 08:31:00,
2013-09-16 04:41:00,52.9,48.7,-100.00,SSW,203,0.0,0.0,86,0.00,,,0.00,WSDL version 420,2013-09-16 08:41:00,
2013-09-16 04:52:00,53.1,49.2,29.26,SSW,203,0.0,0.0,87,0.00,,,0.00,WSDL version 420,2013-09-16 08:52:00,
2013-09-16 04:58:00,53.1,49.2,29.26,SSW,203,0.0,0.0,87,0.00,,,0.00,WSDL version 420,2013-09-16 08:58:00,
2013-09-16 05:04:00,53.1,49.2,29.26,SSW,203,0.0,0.0,87,0.00,,,0.00,WSDL version 420,2013-09-16 09:04:00,
2013-09-16 05:09:00,53.1,49.2,29.26,SSW,203,0.0,0.0,87,0.00,,,0.00,WSDL version 420,2013-09-16 09:09:00,
2013-09-16 05:15:00,53.1,49.5,-100.00,SSW,203,0.0,0.0,88,0.00,,,0.00,WSDL version 420,2013-09-16 09:15:00,
2013-09-16 05:20:00,53.2,49.7,-100.00,SSW,203,0.0,0.0,88,0.00,,,0.00,WSDL version 420,2013-09-16 09:20:00,
2013-09-16 05:32:00,53.2,50.1,29.26,SSW,203,0.0,0.0,89,0.00,,,0.00,WSDL version 420,2013-09-16 09:32:00,
2013-09-16 05:44:00,53.2,50.1,-100.00,SSW,203,0.0,0.0,89,0.00,,,0.00,WSDL version 420,2013-09-16 09:44:00,
2013-09-16 05:50:00,53.4,50.2,29.23,SSW,203,0.0,0.0,89,0.00,,,0.00,WSDL version 420,2013-09-16 09:50:00,
2013-09-16 05:59:00,53.4,50.2,-100.00,SSW,203,0.0,0.0,89,-99.99,,,-99.99,WSDL version 420,2013-09-16 09:59:00,
2013-09-16 06:05:00,53.5,50.4,29.23,SSW,203,0.0,0.0,89,0.00,,,0.00,WSDL version 420,2013-09-16 10:05:00,
2013-09-16 06:10:00,53.6,50.4,29.26,SSW,203,0.0,0.0,89,0.00,,,0.00,WSDL version 420,2013-09-16 10:10:00,
2013-09-16 06:16:00,53.6,50.4,29.26,SSW,203,0.0,0.0,89,0.00,,,0.00,WSDL version 420,2013-09-16 10:16:00,
2013-09-16 06:21:00,53.6,50.4,-100.00,SSW,203,0.0,0.0,89,-99.99,,,-99.99,WSDL version 420,2013-09-16 10:21:00,
2013-09-16 06:32:00,53.6,50.4,29.26,SSW,203,0.0,0.0,89,0.00,,,0.00,WSDL version 420,2013-09-16 10:32:00,
2013-09-16 06:39:00,53.6,50.4,29.26,SSW,203,0.0,0.0,89,0.00,,,0.00,WSDL version 420,2013-09-16 10:39:00,
2013-09-16 06:45:00,53.4,50.2,-100.00,SSW,203,0.0,0.0,89,0.00,,,0.00,WSDL version 420,2013-09-16 10:45:00,
2013-09-16 06:50:00,53.2,49.7,-100.00,SSW,203,0.0,0.0,88,0.00,,,0.00,WSDL version 420,2013-09-16 10:50:00,
2013-09-16 06:56:00,53.1,49.6,-100.00,SSW,203,0.0,0.0,88,0.00,,,0.00,WSDL version 420,2013-09-16 10:56:00,
2013-09-16 07:01:00,52.9,49.0,-100.00,SSW,203,0.0,0.0,87,0.00,,,0.00,WSDL version 420,2013-09-16 11:01:00,
2013-09-16 07:07:00,52.8,48.9,29.29,SSW,203,0.0,0.0,87,0.00,,,0.00,WSDL version 420,2013-09-16 11:07:00,
2013-09-16 07:14:00,52.5,48.7,29.29,SSW,203,0.0,0.0,87,0.00,,,0.00,WSDL version 420,2013-09-16 11:14:00,
2013-09-16 07:23:00,52.2,48.7,-100.00,SSW,203,0.0,0.0,88,0.00,,,0.00,WSDL version 420,2013-09-16 11:23:00,
2013-09-16 07:31:00,52.0,48.5,-100.00,SSW,203,0.0,0.0,88,0.00,,,0.00,WSDL version 420,2013-09-16 11:31:00,
2013-09-16 07:37:00,52.0,48.5,-100.00,SSW,203,0.0,0.0,88,0.00,,,0.00,WSDL version 420,2013-09-16 11:37:00,
2013-09-16 07:48:00,52.2,49.0,29.29,SSW,203,0.0,0.0,89,0.00,,,0.00,WSDL version 420,2013-09-16 11:48:00,
2013-09-16 07:57:00,52.5,49.7,29.32,SSW,203,0.0,0.0,90,0.00,,,0.00,WSDL version 420,2013-09-16 11:57:00,
2013-09-16 08:03:00,52.7,49.9,-100.00,SSW,203,0.0,0.0,90,0.00,,,0.00,WSDL version 420,2013-09-16 12:03:00,
2013-09-16 08:08:00,53.2,50.3,-100.00,SSW,203,0.0,0.0,90,0.00,,,0.00,WSDL version 420,2013-09-16 12:08:00,
2013-09-16 08:17:00,54.1,51.3,29.29,South,190,0.0,0.0,90,0.00,,,0.00,WSDL version 420,2013-09-16 12:17:00,
2013-09-16 08:23:00,54.8,51.9,-100.00,SSW,203,0.0,0.0,90,-99.99,,,-99.99,WSDL version 420,2013-09-16 12:23:00,
2013-09-16 08:30:00,55.8,52.9,29.32,SSW,203,0.0,0.0,90,-99.99,,,-99.99,WSDL version 420,2013-09-16 12:30:00,
2013-09-16 08:35:00,57.0,53.8,29.32,SSW,203,0.0,0.0,89,-99.99,,,-99.99,WSDL version 420,2013-09-16 12:35:00,
2013-09-16 08:41:00,57.7,54.3,-100.00,SSW,203,0.0,0.0,88,0.00,,,0.00,WSDL version 420,2013-09-16 12:41:00,
2013-09-16 08:48:00,59.3,54.0,-100.00,SW,225,0.0,0.0,82,0.00,,,0.00,WSDL version 420,2013-09-16 12:48:00,
2013-09-16 08:55:00,60.4,53.2,29.29,SSW,212,0.0,0.0,77,0.00,,,0.00,WSDL version 420,2013-09-16 12:55:00,
2013-09-16 09:07:00,61.2,52.1,-100.00,NNW,333,0.0,2.9,72,0.00,,,0.00,WSDL version 420,2013-09-16 13:07:00,
2013-09-16 09:15:00,60.6,50.4,-100.00,NNW,329,0.0,1.1,69,-99.99,,,-99.99,WSDL version 420,2013-09-16 13:15:00,
2013-09-16 09:21:00,60.6,49.8,-100.00,NW,324,0.0,0.0,67,0.00,,,0.00,WSDL version 420,2013-09-16 13:21:00,
2013-09-16 09:26:00,61.0,50.0,-100.00,NNW,341,0.0,0.0,67,0.00,,,0.00,WSDL version 420,2013-09-16 13:26:00,
2013-09-16 09:35:00,60.7,49.3,29.32,NNW,338,0.0,0.0,66,0.00,,,0.00,WSDL version 420,2013-09-16 13:35:00,
2013-09-16 09:43:00,60.6,49.4,29.32,NNW,338,0.0,0.0,66,0.00,,,0.00,WSDL version 420,2013-09-16 13:43:00,
2013-09-16 09:49:00,60.9,49.9,29.32,North,360,0.0,0.0,67,0.00,,,0.00,WSDL version 420,2013-09-16 13:49:00,
2013-09-16 10:00:00,60.4,48.6,-100.00,NNW,333,0.2,2.5,65,0.00,,,0.00,WSDL version 420,2013-09-16 14:00:00,
2013-09-16 10:09:00,59.9,48.1,29.32,NNW,338,0.0,2.0,65,-99.99,,,-99.99,WSDL version 420,2013-09-16 14:09:00,
2013-09-16 10:15:00,59.6,48.3,29.32,North,351,0.0,1.3,67,0.00,,,0.00,WSDL version 420,2013-09-16 14:15:00,
2013-09-16 10:20:00,59.4,48.4,29.32,NNE,14,0.0,0.0,67,0.00,,,0.00,WSDL version 420,2013-09-16 14:20:00,
2013-09-16 10:26:00,59.4,48.8,29.29,NNW,338,0.2,1.6,68,0.00,,,0.00,WSDL version 420,2013-09-16 14:26:00,
2013-09-16 10:31:00,59.2,48.6,-100.00,NNW,341,0.0,1.6,68,0.00,,,0.00,WSDL version 420,2013-09-16 14:31:00,
2013-09-16 10:40:00,59.2,49.0,-100.00,NW,320,0.0,1.1,69,0.00,,,0.00,WSDL version 420,2013-09-16 14:40:00,
2013-09-16 10:52:00,59.0,49.2,29.32,NNW,338,0.0,0.0,70,0.00,,,0.00,WSDL version 420,2013-09-16 14:52:00,
2013-09-16 10:59:00,59.2,49.8,29.32,North,360,0.0,0.0,71,0.00,,,0.00,WSDL version 420,2013-09-16 14:59:00,
2013-09-16 11:10:00,59.4,50.2,-100.00,NNE,23,0.4,2.2,71,0.00,,,0.00,WSDL version 420,2013-09-16 15:10:00,
2013-09-16 11:16:00,58.9,49.9,29.32,NNW,345,0.0,2.2,72,-99.99,,,-99.99,WSDL version 420,2013-09-16 15:16:00,
2013-09-16 11:21:00,58.3,49.9,29.32,North,356,0.0,2.2,74,0.00,,,0.00,WSDL version 420,2013-09-16 15:21:00,
2013-09-16 11:31:00,58.1,50.0,29.35,NNW,344,0.0,0.9,75,-99.99,,,-99.99,WSDL version 420,2013-09-16 15:31:00,
2013-09-16 11:36:00,57.9,50.2,29.35,North,5,0.0,2.0,75,0.00,,,0.00,WSDL version 420,2013-09-16 15:36:00,
2013-09-16 11:43:00,57.6,50.1,29.35,NNE,23,0.0,0.0,76,0.00,,,0.00,WSDL version 420,2013-09-16 15:43:00,
2013-09-16 11:49:00,57.4,50.0,-100.00,NNW,343,0.4,1.1,76,-99.99,,,-99.99,WSDL version 420,2013-09-16 15:49:00,
2013-09-16 11:56:00,57.4,50.2,-100.00,North,6,0.0,1.1,77,0.00,,,0.00,WSDL version 420,2013-09-16 15:56:00,
2013-09-16 12:04:00,57.6,50.4,29.35,North,9,0.0,0.0,77,0.00,,,0.00,WSDL version 420,2013-09-16 16:04:00,
2013-09-16 12:10:00,57.7,50.6,29.35,NNW,342,0.0,0.0,77,0.00,,,0.00,WSDL version 420,2013-09-16 16:10:00,
2013-09-16 12:15:00,57.6,50.8,29.35,NE,56,0.0,0.0,78,0.00,,,0.00,WSDL version 420,2013-09-16 16:15:00,
2013-09-16 12:21:00,57.6,50.6,29.35,NNE,32,0.0,0.0,77,0.00,,,0.00,WSDL version 420,2013-09-16 16:21:00,
2013-09-16 12:30:00,57.6,50.6,29.35,NE,41,0.0,0.0,78,0.00,,,0.00,WSDL version 420,2013-09-16 16:30:00,
2013-09-16 12:36:00,57.6,50.5,29.35,NE,36,0.0,0.9,77,-99.99,,,-99.99,WSDL version 420,2013-09-16 16:36:00,
2013-09-16 12:45:00,56.7,49.9,29.38,North,6,0.0,2.7,78,0.00,,,0.00,WSDL version 420,2013-09-16 16:45:00,
2013-09-16 12:51:00,56.4,49.6,-100.00,NNE,27,0.0,2.7,78,-99.99,,,-99.99,WSDL version 420,2013-09-16 16:51:00,
2013-09-16 12:57:00,56.2,50.0,-100.00,NE,38,0.0,0.0,80,0.00,,,0.00,WSDL version 420,2013-09-16 16:57:00,
2013-09-16 13:06:00,56.5,51.1,29.38,ENE,62,0.0,2.2,82,0.00,,,0.00,WSDL version 420,2013-09-16 17:06:00,
2013-09-16 13:18:00,56.7,50.9,-100.00,ENE,60,0.0,0.0,81,0.00,,,0.00,WSDL version 420,2013-09-16 17:18:00,
2013-09-16 13:26:00,56.7,50.6,-100.00,NNE,27,0.0,2.9,80,0.00,,,0.00,WSDL version 420,2013-09-16 17:26:00,
2013-09-16 13:32:00,56.7,50.2,29.38,NNW,332,0.7,2.9,79,0.00,,,0.00,WSDL version 420,2013-09-16 17:32:00,
2013-09-16 13:37:00,57.0,50.6,29.38,NNW,338,0.0,2.2,79,0.00,,,0.00,WSDL version 420,2013-09-16 17:37:00,
2013-09-16 13:44:00,57.1,50.2,29.35,NNW,341,0.0,1.3,77,0.00,,,0.00,WSDL version 420,2013-09-16 17:44:00,
2013-09-16 13:51:00,56.7,49.2,29.35,North,360,0.0,1.1,76,0.00,,,0.00,WSDL version 420,2013-09-16 17:51:00,
2013-09-16 13:57:00,56.4,49.0,29.35,NNW,338,0.2,2.2,76,0.00,,,0.00,WSDL version 420,2013-09-16 17:57:00,
2013-09-16 14:03:00,56.3,48.8,-100.00,NNW,330,0.0,2.2,76,0.00,,,0.00,WSDL version 420,2013-09-16 18:03:00,
2013-09-16 14:12:00,56.3,49.2,-100.00,NE,51,0.0,0.0,77,-99.99,,,-99.99,WSDL version 420,2013-09-16 18:12:00,
2013-09-16 14:18:00,56.2,48.9,29.38,NNW,338,0.0,0.0,76,0.00,,,0.00,WSDL version 420,2013-09-16 18:18:00,
2013-09-16 14:23:00,55.9,48.5,29.38,North,11,0.0,2.5,76,0.00,,,0.00,WSDL version 420,2013-09-16 18:23:00,
2013-09-16 14:34:00,55.6,48.5,-100.00,North,354,0.0,1.1,77,0.00,,,0.00,WSDL version 420,2013-09-16 18:34:00,
2013-09-16 14:40:00,55.6,48.8,29.38,North,360,0.0,2.7,78,0.00,,,0.00,WSDL version 420,2013-09-16 18:40:00,
2013-09-16 14:46:00,55.3,48.4,29.38,NNW,338,0.0,1.3,78,0.00,,,0.00,WSDL version 420,2013-09-16 18:46:00,
2013-09-16 14:55:00,55.0,48.7,29.41,NNW,329,0.0,1.6,79,0.00,,,0.00,WSDL version 420,2013-09-16 18:55:00,
2013-09-16 15:04:00,54.5,48.1,-100.00,NNE,19,0.0,0.9,79,0.00,,,0.00,WSDL version 420,2013-09-16 19:04:00,
2013-09-16 15:14:00,54.1,48.1,29.41,North,360,0.0,0.0,80,0.00,,,0.00,WSDL version 420,2013-09-16 19:14:00,
2013-09-16 15:20:00,54.0,47.9,29.41,NE,56,0.0,1.1,80,0.00,,,0.00,WSDL version 420,2013-09-16 19:20:00,
2013-09-16 15:26:00,53.8,48.2,-100.00,NNW,338,0.0,2.2,81,0.00,,,0.00,WSDL version 420,2013-09-16 19:26:00,
2013-09-16 15:32:00,53.5,47.9,29.41,NW,326,0.0,2.2,81,0.00,,,0.00,WSDL version 420,2013-09-16 19:32:00,
2013-09-16 15:40:00,53.2,48.0,29.41,North,8,0.0,0.0,82,0.00,,,0.00,WSDL version 420,2013-09-16 19:40:00,
2013-09-16 15:51:00,52.9,48.0,29.41,NNE,14,0.0,1.6,83,0.00,,,0.00,WSDL version 420,2013-09-16 19:51:00,
2013-09-16 15:57:00,52.7,47.8,29.44,NNE,18,0.0,1.1,83,0.00,,,0.00,WSDL version 420,2013-09-16 19:57:00,
2013-09-16 16:02:00,52.5,48.0,29.44,North,353,0.0,1.1,84,0.00,,,0.00,WSDL version 420,2013-09-16 20:02:00,
2013-09-16 16:10:00,52.3,47.8,29.41,North,10,0.0,0.0,84,0.00,,,0.00,WSDL version 420,2013-09-16 20:10:00,
2013-09-16 16:19:00,52.2,47.6,-100.00,NNW,338,0.0,0.0,84,0.00,,,0.00,WSDL version 420,2013-09-16 20:19:00,
2013-09-16 16:27:00,52.2,47.8,29.44,North,353,0.0,0.0,86,0.00,,,0.00,WSDL version 420,2013-09-16 20:27:00,
2013-09-16 16:36:00,51.7,47.2,-100.00,North,352,0.0,1.1,84,0.00,,,0.00,WSDL version 420,2013-09-16 20:36:00,
2013-09-16 16:46:00,51.3,46.7,29.44,NNW,342,0.0,1.6,84,0.00,,,0.00,WSDL version 420,2013-09-16 20:46:00,
2013-09-16 16:54:00,51.4,46.8,29.44,North,354,0.0,1.1,84,0.00,,,0.00,WSDL version 420,2013-09-16 20:54:00,
2013-09-16 17:04:00,51.3,46.7,-100.00,NNW,345,0.0,1.1,84,-99.99,,,-99.99,WSDL version 420,2013-09-16 21:04:00,
2013-09-16 17:10:00,51.3,46.4,-100.00,NNW,342,0.0,0.0,83,0.00,,,0.00,WSDL version 420,2013-09-16 21:10:00,
2013-09-16 17:16:00,51.3,46.4,29.44,NNE,15,0.0,0.0,83,0.00,,,0.00,WSDL version 420,2013-09-16 21:16:00,
2013-09-16 17:22:00,51.3,46.1,29.44,North,356,0.0,0.0,82,0.00,,,0.00,WSDL version 420,2013-09-16 21:22:00,
2013-09-16 17:27:00,51.4,46.1,29.44,North,8,0.0,0.0,82,0.00,,,0.00,WSDL version 420,2013-09-16 21:27:00,
2013-09-16 17:36:00,51.4,46.2,-100.00,NNW,338,0.0,0.0,82,0.00,,,0.00,WSDL version 420,2013-09-16 21:36:00,
2013-09-16 17:43:00,51.8,46.6,-100.00,North,349,0.0,0.0,82,0.00,,,0.00,WSDL version 420,2013-09-16 21:43:00,
2013-09-16 17:55:00,51.8,45.5,29.44,NNE,29,0.0,0.0,79,0.00,,,0.00,WSDL version 420,2013-09-16 21:55:00,
2013-09-16 18:01:00,51.8,45.5,-100.00,NNW,347,0.0,0.0,79,0.00,,,0.00,WSDL version 420,2013-09-16 22:01:00,
2013-09-16 18:07:00,51.8,45.2,-100.00,NNE,32,0.0,0.0,78,0.00,,,0.00,WSDL version 420,2013-09-16 22:07:00,
2013-09-16 18:13:00,51.8,45.2,29.44,North,360,0.0,0.0,78,0.00,,,0.00,WSDL version 420,2013-09-16 22:13:00,
2013-09-16 18:18:00,51.6,45.0,29.44,NNE,19,0.0,0.9,78,0.00,,,0.00,WSDL version 420,2013-09-16 22:18:00,
2013-09-16 18:24:00,51.6,45.0,29.47,North,351,0.0,0.9,78,0.00,,,0.00,WSDL version 420,2013-09-16 22:24:00,
2013-09-16 18:30:00,51.5,44.7,-100.00,NNE,26,0.0,0.0,77,0.00,,,0.00,WSDL version 420,2013-09-16 22:30:00,
2013-09-16 18:35:00,51.4,44.5,-100.00,NNE,28,0.0,0.0,77,0.00,,,0.00,WSDL version 420,2013-09-16 22:35:00,
2013-09-16 18:41:00,51.3,44.1,-100.00,North,350,0.5,1.3,75,0.00,,,0.00,WSDL version 420,2013-09-16 22:41:00,
2013-09-16 18:46:00,51.1,43.1,29.47,NE,34,0.0,1.3,74,0.00,,,0.00,WSDL version 420,2013-09-16 22:46:00,
2013-09-16 18:52:00,50.9,42.6,29.47,NE,45,0.0,0.0,72,0.00,,,0.00,WSDL version 420,2013-09-16 22:52:00,
2013-09-16 18:58:00,50.6,41.6,29.47,NE,45,0.0,1.3,71,-99.99,,,-99.99,WSDL version 420,2013-09-16 22:58:00,
2013-09-16 19:04:00,50.5,41.2,29.47,North,351,0.0,3.1,71,-99.99,,,-99.99,WSDL version 420,2013-09-16 23:04:00,
2013-09-16 19:09:00,50.4,41.0,-100.00,North,349,0.0,3.1,70,-99.99,,,-99.99,WSDL version 420,2013-09-16 23:09:00,
2013-09-16 19:15:00,50.3,40.7,29.47,NNW,332,0.0,0.0,69,0.00,,,0.00,WSDL version 420,2013-09-16 23:15:00,
2013-09-16 19:20:00,50.2,40.4,29.47,NNW,338,0.0,0.0,69,0.00,,,0.00,WSDL version 420,2013-09-16 23:20:00,
2013-09-16 19:26:00,50.1,40.0,29.47,NNW,346,0.0,0.0,68,0.00,,,0.00,WSDL version 420,2013-09-16 23:26:00,
2013-09-16 19:33:00,50.0,39.1,29.47,NNW,347,0.0,0.0,66,0.00,,,0.00,WSDL version 420,2013-09-16 23:33:00,
2013-09-16 19:46:00,49.6,39.9,-100.00,NNE,23,0.0,0.0,69,0.00,,,0.00,WSDL version 420,2013-09-16 23:46:00,
2013-09-16 19:53:00,49.3,39.9,29.47,NNE,23,0.0,0.0,70,0.00,,,0.00,WSDL version 420,2013-09-16 23:53:00,
2013-09-16 19:58:00,49.1,40.2,29.50,NNE,23,0.0,0.0,71,0.00,,,0.00,WSDL version 420,2013-09-16 23:58:00,
2013-09-16 20:04:00,49.1,40.5,29.50,NNE,23,0.0,0.0,72,0.00,,,0.00,WSDL version 420,2013-09-17 00:04:00,
2013-09-16 20:10:00,48.9,40.4,29.47,NNE,23,0.0,0.0,73,-99.99,,,-99.99,WSDL version 420,2013-09-17 00:10:00,
2013-09-16 20:55:00,48.4,41.5,29.50,ENE,68,0.0,0.0,77,0.00,,,0.00,WSDL version 420,2013-09-17 00:55:00,
2013-09-16 21:01:00,48.3,41.4,29.50,ENE,68,0.0,0.0,77,-99.99,,,-99.99,WSDL version 420,2013-09-17 01:01:00,
2013-09-16 21:19:00,47.5,41.3,29.50,NE,50,0.0,0.0,79,0.00,,,0.00,WSDL version 420,2013-09-17 01:19:00,
2013-09-16 21:25:00,47.5,41.6,29.50,North,8,0.0,0.0,80,-99.99,,,-99.99,WSDL version 420,2013-09-17 01:25:00,
2013-09-16 21:31:00,47.5,41.7,29.50,NE,45,0.0,0.0,81,-99.99,,,-99.99,WSDL version 420,2013-09-17 01:31:00,
2013-09-16 21:37:00,47.5,42.0,29.50,ENE,59,0.0,0.0,81,0.00,,,0.00,WSDL version 420,2013-09-17 01:37:00,
2013-09-16 21:43:00,47.5,42.0,29.50,East,90,0.0,0.0,81,0.00,,,0.00,WSDL version 420,2013-09-17 01:43:00,
2013-09-16 21:54:00,47.5,42.3,29.50,ENE,68,0.0,0.0,82,0.00,,,0.00,WSDL version 420,2013-09-17 01:54:00,
2013-09-16 21:59:00,47.5,42.3,29.50,ENE,68,0.0,0.0,82,-99.99,,,-99.99,WSDL version 420,2013-09-17 01:59:00,
2013-09-16 22:04:00,47.3,42.2,29.50,ENE,68,0.0,0.0,82,0.00,,,0.00,WSDL version 420,2013-09-17 02:04:00,
2013-09-16 22:15:00,47.1,42.0,29.50,ENE,68,0.0,0.0,82,0.00,,,0.00,WSDL version 420,2013-09-17 02:15:00,
2013-09-16 22:23:00,46.9,41.8,-100.00,ENE,68,0.0,0.0,82,-99.99,,,-99.99,WSDL version 420,2013-09-17 02:23:00,
2013-09-16 22:29:00,46.9,41.7,-100.00,ENE,68,0.0,0.0,82,0.00,,,0.00,WSDL version 420,2013-09-17 02:29:00,
2013-09-16 22:34:00,46.5,41.4,29.50,ENE,68,0.0,0.0,82,0.00,,,0.00,WSDL version 420,2013-09-17 02:34:00,
2013-09-16 22:43:00,46.2,41.5,29.47,ENE,68,0.0,0.0,83,0.00,,,0.00,WSDL version 420,2013-09-17 02:43:00,
2013-09-16 22:50:00,46.0,41.6,29.47,ENE,68,0.0,0.0,84,-99.99,,,-99.99,WSDL version 420,2013-09-17 02:50:00,
2013-09-16 22:56:00,45.9,41.4,-100.00,East,90,0.0,0.0,84,0.00,,,0.00,WSDL version 420,2013-09-17 02:56:00,
2013-09-16 23:02:00,45.6,41.1,-100.00,East,90,0.0,0.0,84,0.00,,,0.00,WSDL version 420,2013-09-17 03:02:00,
2013-09-16 23:12:00,45.3,40.9,29.50,East,90,0.0,0.0,84,-99.99,,,-99.99,WSDL version 420,2013-09-17 03:12:00,
2013-09-16 23:18:00,45.3,40.9,29.50,East,90,0.0,0.0,84,0.00,,,0.00,WSDL version 420,2013-09-17 03:18:00,
2013-09-16 23:23:00,45.1,41.1,29.50,East,90,0.0,0.0,86,0.00,,,0.00,WSDL version 420,2013-09-17 03:23:00,
2013-09-16 23:29:00,45.1,41.0,-100.00,East,90,0.0,0.0,86,0.00,,,0.00,WSDL version 420,2013-09-17 03:29:00,
2013-09-16 23:36:00,44.8,40.7,29.50,East,90,0.0,0.0,86,0.00,,,0.00,WSDL version 420,2013-09-17 03:36:00,
2013-09-16 23:42:00,44.5,40.5,29.50,East,90,0.0,0.0,86,0.00,,,0.00,WSDL version 420,2013-09-17 03:42:00,
2013-09-16 23:48:00,44.3,40.2,29.50,East,90,0.0,0.0,86,0.00,,,0.00,WSDL version 420,2013-09-17 03:48:00,
2013-09-16 23:54:00,44.2,40.4,29.50,East,90,0.0,0.0,87,0.00,,,0.00,WSDL version 420,2013-09-17 03:54:00,